Tracking 30990 objects as of 8-Jul-2025
HD Live streaming from Space Station
objects crossing your sky now

SL-14 R/B

Track SL-14 R/B now!
10-day predictions


NORAD ID: 15370
Int'l Code: 1984-111B
Perigee: 603.2 km
Apogee: 633.5 km
Inclination: 82.5 °
Period: 96.9 minutes
Semi major axis: 6989 km
RCS: 4.088 m2 (large)
Launch date: October 18, 1984
Source: Commonwealth of Independent States (former USSR) (CIS)
Launch site: PLESETSK MISSILE AND SPACE COMPLEX (PKMTR)

Note: This is a ROCKET BODY
Your satellite tracking list
Your tracking list is empty




NASA's NSSDC Master Catalog

Two Line Element Set (TLE):
1 15370U 84111B   25188.89758967  .00000362  00000-0  38657-4 0  9998
2 15370  82.5167 126.8147 0021682  65.0171 295.3294 14.85747777179520
Source of the keplerian elements: AFSPC